PROXIMA I (43694 NORAD) Tracking and Keplerian Element Data

This shows tracking and keplerian element data for the satellite.

Feedback or suggestion? Click here.




ElementValue
Catalog43694
NamePROXIMA I
Epoch Orbit2977
Epoch Day146.02580465
Epoch Year2019
RAAN333.5943
Inclination85.0305
Eccentricity0.0017197
Argument of Perigee271.817
Mean Anonmoly88.1102
Mean Motion15.21343025
Decay Rate6.24E-06
L11 43694U 18088E 19146.02580465 .00000624 00000-0 25986-4 0 9998
L22 43694 85.0305 333.5943 0017197 271.8170 88.1102 15.21343025 29771

Live tracking and technical data element details for PROXIMA I (NORAD 43694). PROXIMA I can be tracked NOW for your location showing map with azimuth and elevation plus other details from your city location.

Track the satellite on the map from your city or location and see movement details for azimuth, elevation, latitude, longitude, range, height, and movement on the map or in text.







IsCatalogInMostPopularTable: catalog: 43694, numindb: 129
Update: records affected: 1



GetName: 43694 PROXIMA I

Hit Count: updated at: Sun, 26 May 2019 18:58:05 GMT